Location: *
(50.8512°N, 5.6907°E)
Time: 03:47:25
(UTC+00:00)

Mayak - Pass Details

Date: 09 April 2020
Orbit: 581 x 600 km, 97.5° (Epoch: 04 June)

Event Time Altitude Azimuth Distance (km) Brightness Sun altitude
Rises 21:59:38 0° 13° (NNE) 2,826 ? -27.4°
Reaches altitude 10° 22:01:48 10° 14° (NNE) 1,918 ? -27.5°
Enters shadow 22:04:24 38° 17° (NNE) 910 ? -27.7°
